Wind_Speed
1 1 1 1 1 2 2 2 2 2 2 2 2 2 2 2 2 2 2 2 2 2 2 2 2 2 2 2 2 2 2 2 2 2 2 1 2 2 2 3 3 3 3
1 0 0 1 1 1 2 2 2 2 2 2 2 2 2 2 2 2 2 2 2 1 1 1 2 2 2 3 3 3 3 3 3 3 2 2 2 3 3 3 4 4 5
1 1 1 0 1 1 1 1 2 2 2 2 3 3 2 2 2 2 1 1 2 1 1 1 2 2 3 2 3 4 4 4 4 4 4 3 3 3 3 4 4 5 5
1 1 1 0 1 1 1 1 2 2 2 3 3 3 3 2 1 2 2 2 2 2 1 2 2 2 3 3 3 3 3 4 5 5 4 4 4 4 4 5 5 5 5
1 1 1 1 0 1 1 1 1 1 1 2 2 3 3 2 1 2 2 2 2 2 2 2 2 2 3 3 3 4 4 5 6 6 6 6 5 5 5 5 5 5 5
2 2 2 2 1 1 0 0 1 1 1 1 1 2 1 2 2 2 2 2 2 2 2 2 2 2 3 3 4 5 5 6 7 7 7 7 7 7 7 7 6 6 6
3 3 2 2 3 2 2 2 2 2 2 2 2 2 2 2 3 3 3 2 3 4 3 3 2 3 3 4 5 6 6 7 7 7 7 7 7 7 7 7 7 6 6
4 4 3 3 3 3 3 3 3 3 3 3 3 3 3 3 3 3 3 3 4 4 5 4 4 5 5 5 6 7 7 8 8 7 7 7 7 8 7 7 7 7 7
5 5 4 4 4 4 4 4 4 4 4 5 5 4 5 4 4 4 4 4 4 6 6 6 6 6 6 6 7 7 8 8 8 8 8 8 8 7 8 7 8 7 7
5 5 5 5 5 5 5 5 5 5 5 6 6 6 6 6 5 5 5 6 6 6 7 6 6 7 7 8 8 8 8 8 8 8 7 8 7 7 8 8 8 8 8
5 5 5 6 6 6 6 6 6 6 6 7 7 7 7 7 6 6 7 7 8 8 8 8 8 8 9 9 8 9 9 8 8 7 7 7 7 7 8 8 8 8 8
6 6 6 7 7 7 7 7 7 7 7 7 7 7 7 7 7 8 8 9 9 9 9 9 9 9 10 10 10 10 9 9 9 9 8 8 8 8 8 8 8 9 9
6 7 7 7 7 8 8 8 9 9 9 9 8 8 8 9 9 9 10 10 10 10 11 10 10 10 10 10 10 10 10 9 9 9 8 8 8 8 9 9 9 9 9
7 8 8 8 8 9 9 9 10 10 10 10 10 10 10 10 10 10 11 11 11 11 11 11 11 10 11 10 10 10 10 9 9 9 9 9 9 9 9 9 9 9 9
8 8 8 9 9 9 9 9 10 10 10 10 11 11 11 10 11 11 12 12 12 12 12 12 13 12 11 11 11 11 11 11 10 10 10 10 10 10 10 11 10 10 10
8 8 9 9 9 9 9 9 9 10 11 11 11 11 11 11 11 12 12 12 12 12 13 13 13 12 12 11 11 11 11 11 11 10 10 10 11 11 11 11 11 11 11
9 9 9 10 10 11 10 10 10 10 11 11 11 12 12 12 12 12 12 13 13 13 13 13 13 12 12 12 11 11 12 12 11 11 11 11 12 12 12 12 12 12 12
10 10 10 10 11 11 12 12 11 11 11 12 12 12 12 12 12 13 13 13 13 13 13 13 13 13 12 12 12 12 12 12 12 12 12 12 12 12 12 12 12 13 13
10 10 10 11 11 11 12 12 13 12 12 12 12 13 13 13 13 13 14 14 13 13 13 13 13 13 13 13 13 13 13 13 13 13 13 13 13 13 13 13 13 13 13
11 11 11 11 11 12 12 13 13 13 13 13 13 13 13 13 13 13 13 13 14 14 13 13 13 13 13 13 13 13 14 13 13 13 14 14 14 14 14 14 13 13 13
11 12 12 12 12 12 12 13 13 13 13 13 12 12 12 13 13 13 12 13 13 13 13 13 13 13 13 13 13 14 14 14 14 14 14 14 14 14 15 14 14 14 14
13 13 13 12 13 13 13 13 13 13 13 13 13 13 13 13 13 13 12 13 13 14 14 14 13 14 14 14 14 14 14 14 14 14 14 15 15 15 15 16 16 15 15
15 14 14 14 14 14 14 14 13 14 14 14 15 15 14 14 14 13 13 14 14 14 15 15 15 15 15 15 15 15 16 15 15 15 15 15 15 16 16 16 16 16 16
15 15 15 15 16 16 16 15 15 15 16 16 16 15 15 14 15 15 14 14 15 15 15 16 16 16 17 17 17 17 17 17 16 16 16 16 16 17 17 17 17 17 17
17 17 17 17 18 18 18 17 17 17 17 17 17 17 16 16 16 16 16 16 16 16 16 16 16 17 17 18 18 18 18 17 17 17 17 17 17 17 18 18 17 17 17
19 19 19 19 19 19 19 19 19 19 19 19 19 18 18 18 18 17 17 17 17 17 18 18 17 17 17 18 18 18 18 18 18 17 17 17 17 18 18 19 19 18 18
Wind_Direction
97 76 61 64 83 88 70 60 56 59 52 43 42 32 35 30 26 20 10 351 347 342 340 331 289 266 235 224 239 247 252 262 264 270 282 268 273 267 250 255 260 271 279
161 225 128 103 74 84 75 61 51 59 47 32 23 10 11 357 358 0 351 345 332 320 318 317 331 284 247 235 254 264 255 265 277 277 266 251 263 260 253 263 267 263 266
213 229 169 102 61 61 59 56 64 69 46 28 13 14 10 357 1 6 354 357 356 350 308 282 313 300 278 274 272 274 260 262 274 282 280 271 275 270 262 268 271 264 266
217 208 192 98 68 71 83 72 74 72 40 27 19 25 20 22 8 2 5 358 357 357 346 302 307 303 286 290 291 293 281 275 276 279 280 274 271 267 264 273 280 264 268
226 228 219 207 162 116 87 85 47 49 29 16 16 25 17 4 342 331 324 326 336 348 338 317 303 298 293 288 288 290 287 285 279 271 268 267 269 267 266 277 280 276 270
242 237 232 233 245 245 277 318 309 316 336 330 345 357 342 317 322 324 306 303 317 325 319 311 307 302 291 284 283 282 287 287 279 273 271 267 266 263 265 272 279 282 280
251 250 252 251 259 264 275 293 291 298 300 306 289 288 294 292 310 325 320 290 295 295 301 304 309 298 291 287 285 286 289 286 281 276 271 269 267 267 269 271 280 283 286
260 261 266 270 269 275 281 284 285 286 289 277 270 285 289 296 306 314 313 294 295 294 295 291 288 287 287 286 287 287 288 287 282 278 274 269 269 269 272 272 276 281 281
258 259 263 268 270 272 275 280 283 279 275 271 274 283 287 290 288 288 290 292 295 294 293 289 283 282 281 286 288 288 288 288 280 275 270 268 268 268 270 273 278 283 283
258 262 265 270 273 272 273 277 280 278 278 274 274 278 280 282 279 272 275 284 287 289 288 285 281 284 288 289 287 288 290 288 281 272 268 268 267 267 271 274 276 279 282
261 263 268 274 276 277 278 279 279 280 281 279 276 276 278 278 273 267 271 278 285 286 286 286 281 284 287 288 288 288 287 284 280 275 273 273 273 272 273 272 272 276 279
264 266 272 275 277 280 281 281 279 279 280 279 277 275 275 276 274 272 273 276 281 281 282 283 281 282 286 284 282 282 282 280 280 275 275 275 272 272 274 273 274 277 278
265 270 275 277 279 282 282 280 277 276 278 278 277 275 275 272 273 275 276 278 279 280 280 281 284 283 286 286 281 278 280 279 277 273 270 270 269 269 272 272 276 278 281
265 271 277 276 276 278 280 280 278 277 278 278 276 274 274 273 272 275 276 277 278 280 281 282 283 283 285 284 281 278 277 277 274 271 266 266 267 267 270 274 277 277 280
267 272 274 276 275 274 274 276 278 278 278 278 277 275 274 274 274 275 278 276 277 278 279 281 279 279 281 280 279 275 273 273 273 273 268 267 267 268 270 272 274 278 281
268 270 273 274 271 271 274 276 278 279 279 278 276 276 275 274 275 277 278 277 277 277 277 280 279 278 277 276 274 273 273 273 273 272 270 269 268 268 271 275 276 277 280
271 271 274 275 274 274 276 278 282 281 280 278 276 276 276 276 277 279 279 278 278 278 277 277 277 275 275 274 270 272 272 273 272 270 270 271 270 270 272 276 276 275 278
276 276 277 278 278 276 276 278 281 281 280 279 277 275 275 276 277 278 279 278 279 279 276 274 274 275 275 274 271 270 270 271 268 268 268 269 270 269 271 273 276 276 278
278 280 280 280 281 280 279 280 278 277 280 280 280 278 276 278 281 280 278 277 277 277 275 273 274 272 273 273 273 271 269 271 268 266 266 268 269 270 270 272 273 274 278
281 284 284 282 281 281 279 278 276 277 278 280 281 279 279 280 281 283 282 280 278 276 276 275 273 272 272 272 272 271 270 270 269 268 268 268 269 270 270 271 272 276 279
280 282 282 283 283 282 281 279 278 277 276 276 278 277 278 278 280 285 284 284 281 279 280 280 276 274 273 274 273 272 272 271 270 270 270 270 270 270 269 270 273 275 277
277 278 280 281 285 286 285 282 280 279 279 278 277 275 276 277 280 282 283 282 283 282 281 281 278 273 273 273 272 271 271 271 270 269 267 267 269 271 272 272 273 273 276
278 279 280 280 282 284 285 283 280 280 279 278 278 275 274 277 279 282 282 281 281 281 280 281 280 277 272 271 270 270 269 268 269 268 267 267 267 270 273 274 274 272 272
277 278 278 278 279 281 283 282 278 278 278 278 276 275 274 275 277 279 280 282 282 283 280 279 279 277 273 270 271 271 271 270 271 269 269 269 268 269 272 274 274 273 273
274 276 277 277 278 278 278 279 280 278 277 277 276 274 275 276 276 277 280 281 281 283 282 280 278 276 274 272 273 272 272 272 273 270 269 271 271 270 270 270 271 272 273
273 273 274 275 277 277 278 279 280 279 277 277 275 273 274 276 277 277 278 279 279 280 280 279 278 277 275 274 273 271 271 272 272 272 272 272 271 270 269 269 270 272 274
Height
5870 5870 5870 5870 5870 5870 5870 5870 5870 5870 5869 5869 5870 5870 5870 5870 5870 5870 5870 5870 5871 5871 5871 5871 5871 5871 5871 5872 5872 5872 5872 5873 5873 5873 5873 5873 5873 5873 5874 5874 5874 5874 5875
5870 5870 5870 5870 5870 5870 5870 5870 5870 5870 5870 5870 5870 5870 5870 5870 5870 5870 5870 5870 5870 5870 5870 5870 5870 5870 5870 5871 5871 5871 5871 5872 5872 5872 5872 5873 5873 5873 5873 5873 5873 5873 5873
5870 5870 5870 5870 5870 5870 5870 5870 5870 5870 5870 5870 5870 5870 5869 5869 5869 5870 5870 5870 5870 5870 5870 5870 5870 5870 5870 5870 5871 5871 5871 5871 5872 5872 5872 5872 5872 5872 5872 5872 5872 5872 5872
5870 5870 5870 5870 5870 5870 5870 5870 5870 5870 5870 5870 5870 5870 5869 5869 5869 5869 5870 5870 5870 5870 5870 5869 5869 5869 5870 5870 5870 5870 5870 5871 5870 5871 5871 5871 5871 5871 5871 5871 5871 5871 5871
5870 5870 5870 5870 5870 5870 5870 5870 5870 5870 5870 5870 5869 5869 5869 5869 5869 5869 5869 5870 5870 5870 5869 5869 5869 5869 5869 5869 5869 5869 5869 5870 5869 5869 5870 5870 5870 5870 5870 5870 5870 5870 5870
5869 5869 5869 5870 5869 5869 5869 5869 5869 5869 5869 5869 5869 5869 5869 5869 5869 5869 5869 5869 5869 5869 5869 5869 5868 5868 5869 5869 5869 5868 5868 5868 5868 5868 5868 5868 5868 5869 5869 5869 5869 5869 5869
5869 5869 5869 5869 5869 5869 5869 5869 5869 5869 5869 5869 5868 5868 5868 5868 5868 5868 5868 5868 5868 5868 5868 5868 5868 5868 5868 5868 5868 5868 5868 5867 5867 5867 5867 5867 5867 5867 5867 5867 5867 5867 5867
5868 5868 5868 5868 5868 5868 5868 5868 5868 5868 5868 5868 5867 5867 5868 5867 5867 5867 5867 5867 5867 5867 5867 5867 5867 5867 5867 5867 5867 5866 5866 5866 5865 5865 5865 5865 5865 5865 5866 5866 5866 5866 5866
5868 5868 5868 5868 5868 5868 5868 5867 5867 5867 5867 5867 5867 5867 5867 5867 5866 5867 5866 5866 5866 5866 5866 5866 5866 5866 5865 5865 5865 5865 5865 5864 5864 5863 5863 5864 5864 5864 5864 5864 5864 5864 5864
5867 5867 5867 5867 5867 5867 5867 5866 5866 5866 5866 5866 5865 5865 5865 5865 5865 5865 5865 5865 5865 5865 5864 5864 5864 5864 5864 5863 5863 5863 5863 5862 5862 5862 5862 5862 5862 5862 5862 5862 5862 5862 5862
5866 5866 5866 5866 5866 5866 5865 5865 5865 5865 5865 5864 5864 5864 5864 5864 5864 5864 5864 5864 5863 5863 5863 5862 5862 5862 5862 5862 5861 5861 5861 5860 5860 5859 5860 5860 5860 5860 5860 5860 5860 5860 5860
5864 5864 5864 5864 5864 5864 5864 5864 5863 5863 5863 5863 5862 5862 5862 5862 5862 5862 5862 5862 5861 5861 5861 5860 5860 5860 5859 5859 5859 5859 5858 5858 5858 5857 5858 5858 5858 5858 5858 5858 5858 5858 5858
5863 5863 5863 5862 5862 5862 5862 5862 5861 5861 5861 5861 5860 5860 5860 5860 5860 5860 5860 5859 5859 5859 5859 5858 5858 5857 5857 5857 5857 5856 5856 5856 5856 5856 5856 5856 5856 5856 5856 5856 5856 5856 5855
5861 5861 5861 5861 5861 5860 5860 5860 5859 5859 5859 5858 5858 5858 5858 5857 5857 5857 5857 5857 5857 5856 5856 5856 5855 5855 5855 5854 5854 5854 5854 5853 5853 5854 5854 5854 5854 5854 5854 5854 5854 5853 5853
5859 5859 5859 5859 5858 5858 5858 5857 5857 5857 5856 5856 5855 5855 5855 5855 5855 5854 5854 5854 5854 5853 5853 5853 5853 5852 5852 5852 5852 5851 5851 5851 5851 5851 5851 5851 5852 5852 5851 5851 5851 5851 5851
5857 5857 5856 5856 5856 5856 5855 5855 5855 5854 5854 5853 5853 5853 5852 5852 5852 5852 5851 5851 5851 5850 5850 5850 5850 5849 5849 5849 5849 5849 5849 5849 5848 5849 5849 5849 5849 5849 5849 5849 5849 5849 5848
5855 5854 5854 5854 5854 5853 5853 5852 5852 5851 5851 5851 5850 5850 5850 5849 5849 5849 5848 5848 5848 5847 5847 5847 5846 5846 5846 5846 5846 5846 5846 5846 5846 5846 5846 5846 5846 5846 5846 5846 5846 5846 5846
5852 5852 5852 5851 5851 5851 5850 5850 5849 5849 5848 5848 5847 5847 5847 5846 5846 5846 5845 5845 5845 5844 5844 5844 5843 5843 5843 5843 5843 5843 5843 5843 5843 5843 5843 5843 5843 5844 5844 5844 5843 5843 5843
5849 5849 5849 5848 5848 5847 5847 5846 5846 5846 5845 5845 5844 5844 5843 5843 5842 5842 5842 5842 5841 5841 5841 5841 5840 5840 5840 5840 5840 5840 5840 5840 5840 5840 5840 5840 5840 5840 5841 5841 5840 5840 5839
5847 5846 5846 5845 5845 5844 5844 5843 5843 5842 5842 5841 5841 5840 5840 5839 5839 5839 5838 5838 5838 5838 5837 5837 5837 5837 5837 5836 5836 5836 5837 5837 5837 5837 5837 5837 5837 5837 5837 5837 5837 5836 5836
5844 5843 5843 5842 5842 5841 5841 5840 5840 5839 5839 5838 5837 5837 5837 5836 5835 5835 5835 5834 5834 5834 5834 5833 5833 5833 5833 5833 5833 5833 5833 5833 5833 5833 5833 5833 5833 5833 5833 5833 5833 5833 5833
5841 5840 5840 5839 5839 5838 5837 5837 5836 5836 5835 5835 5834 5834 5833 5833 5832 5832 5831 5831 5831 5830 5830 5830 5829 5829 5829 5829 5830 5830 5830 5830 5829 5829 5829 5830 5830 5829 5829 5829 5829 5829 5829
5837 5837 5836 5836 5835 5835 5834 5833 5833 5832 5832 5831 5831 5831 5830 5830 5829 5828 5828 5827 5827 5827 5826 5826 5825 5825 5825 5825 5825 5826 5826 5826 5826 5826 5825 5825 5825 5825 5825 5825 5825 5825 5825
5833 5832 5832 5832 5831 5831 5830 5830 5829 5829 5828 5828 5827 5827 5826 5826 5826 5825 5824 5824 5823 5823 5822 5822 5821 5821 5821 5821 5821 5821 5821 5821 5821 5821 5821 5821 5821 5821 5821 5820 5820 5820 5820
5828 5828 5827 5827 5827 5826 5825 5825 5825 5824 5824 5823 5823 5822 5822 5822 5821 5821 5820 5820 5819 5819 5818 5817 5817 5817 5816 5816 5816 5816 5816 5816 5816 5816 5817 5817 5816 5816 5816 5816 5816 5816 5816
5823 5823 5822 5822 5822 5821 5821 5820 5820 5819 5819 5818 5818 5818 5817 5817 5817 5816 5816 5815 5815 5814 5814 5813 5812 5812 5812 5812 5811 5811 5811 5811 5811 5811 5812 5812 5811 5811 5811 5811 5811 5811 5811